• Em Portugal
  • Lista de países
  • Para 7 dias
  • Temperatura da água
  • Mapas de satélite
  • Mapa do tempo
  • Widgets de tempo
  • user-avatar
    Iniciar Sessão

    Previsão horária em Laskowskie

    Hoje, 18 Outubro, Quinta-feira

    Tempo Temperatura Precipitação Vento Pressão Humidade
    00:00 +10°C° 0 mm 2 m/s 743 mmHg 67%
    01:00 +9°C° 0 mm 2 m/s 743 mmHg 69%
    02:00 +9°C° 0 mm 2 m/s 742 mmHg 72%
    03:00 +8°C° 0 mm 2 m/s 742 mmHg 75%
    04:00 +8°C° 0 mm 2 m/s 742 mmHg 78%
    05:00 +8°C° 0 mm 2 m/s 742 mmHg 81%
    06:00 +8°C° 0 mm 2 m/s 741 mmHg 82%
    07:00 +8°C° 0 mm 2 m/s 741 mmHg 83%
    08:00 +8°C° 0 mm 2 m/s 741 mmHg 83%
    09:00 +10°C° 0 mm 2 m/s 741 mmHg 76%
    10:00 +13°C° 0 mm 2 m/s 741 mmHg 69%
    11:00 +15°C° 0 mm 2 m/s 741 mmHg 62%
    12:00 +16°C° 0 mm 2 m/s 741 mmHg 57%
    13:00 +17°C° 0 mm 2 m/s 741 mmHg 53%
    14:00 +18°C° 0 mm 2 m/s 740 mmHg 49%
    15:00 +18°C° 0 mm 1 m/s 740 mmHg 54%
    16:00 +16°C° 0 mm 1 m/s 740 mmHg 58%
    17:00 +15°C° 0 mm 1 m/s 740 mmHg 62%
    18:00 +14°C° 0 mm 1 m/s 740 mmHg 65%
    19:00 +13°C° 0 mm 1 m/s 740 mmHg 68%
    20:00 +12°C° 0 mm 1 m/s 740 mmHg 70%
    21:00 +12°C° 0 mm 1 m/s 740 mmHg 72%
    22:00 +11°C° 0 mm 1 m/s 740 mmHg 73%
    23:00 +11°C° 0 mm 1 m/s 740 mmHg 74%

    Amanhã, 19 Outubro, Sexta-feira

    Tempo Temperatura Precipitação Vento Pressão Humidade
    00:00 +10°C° 0 mm 1 m/s 740 mmHg 76%
    01:00 +10°C° 0 mm 1 m/s 740 mmHg 78%
    02:00 +10°C° 0 mm 1 m/s 740 mmHg 80%
    03:00 +9°C° 0 mm 1 m/s 740 mmHg 83%
    04:00 +9°C° 0 mm 1 m/s 740 mmHg 85%
    05:00 +9°C° 0 mm 1 m/s 740 mmHg 88%
    06:00 +7°C° 0 mm 2 m/s 740 mmHg 89%
    07:00 +7°C° 0 mm 2 m/s 741 mmHg 90%
    08:00 +7°C° 0 mm 2 m/s 741 mmHg 92%
    09:00 +9°C° 0 mm 2 m/s 741 mmHg 88%
    10:00 +10°C° 0 mm 2 m/s 742 mmHg 83%
    11:00 +12°C° 0 mm 2 m/s 742 mmHg 79%
    12:00 +12°C° 0 mm 2 m/s 742 mmHg 78%
    13:00 +12°C° 0 mm 2 m/s 742 mmHg 77%
    14:00 +12°C° 0 mm 2 m/s 742 mmHg 75%
    15:00 +12°C° 0 mm 2 m/s 742 mmHg 76%
    16:00 +10°C° 0 mm 2 m/s 742 mmHg 78%
    17:00 +9°C° 0 mm 2 m/s 742 mmHg 79%
    18:00 +10°C° 0 mm 1 m/s 743 mmHg 81%
    19:00 +9°C° 0 mm 1 m/s 743 mmHg 83%
    20:00 +8°C° 0 mm 1 m/s 743 mmHg 86%
    21:00 +7°C° 0 mm 1 m/s 743 mmHg 87%
    22:00 +7°C° 0 mm 1 m/s 744 mmHg 88%
    23:00 +6°C° 0 mm 1 m/s 744 mmHg 90%

    Depois de amanhã, 20 Outubro, Sábado

    Tempo Temperatura Precipitação Vento Pressão Humidade
    00:00 +6°C° 0 mm 1 m/s 744 mmHg 90%
    01:00 +6°C° 0 mm 1 m/s 744 mmHg 91%
    02:00 +4°C° 0 mm 0 m/s 744 mmHg 91%
    03:00 +5°C° 0 mm 1 m/s 744 mmHg 92%
    04:00 +5°C° 0 mm 1 m/s 744 mmHg 92%
    05:00 +5°C° 0 mm 1 m/s 744 mmHg 92%
    06:00 +5°C° 0 mm 1 m/s 744 mmHg 92%
    07:00 +5°C° 0 mm 1 m/s 744 mmHg 92%
    08:00 +4°C° 0 mm 2 m/s 744 mmHg 92%
    09:00 +6°C° 0 mm 2 m/s 744 mmHg 85%
    10:00 +7°C° 0 mm 2 m/s 744 mmHg 78%
    11:00 +9°C° 0 mm 3 m/s 744 mmHg 71%
    12:00 +10°C° 0 mm 3 m/s 744 mmHg 69%
    13:00 +10°C° 0 mm 4 m/s 744 mmHg 68%
    14:00 +11°C° 0 mm 4 m/s 743 mmHg 66%
    15:00 +10°C° 0.1 mm 4 m/s 743 mmHg 70%
    16:00 +8°C° 0.1 mm 4 m/s 743 mmHg 74%
    17:00 +8°C° 0.1 mm 4 m/s 743 mmHg 78%
    18:00 +7°C° 0.1 mm 4 m/s 743 mmHg 79%
    19:00 +7°C° 0.1 mm 4 m/s 743 mmHg 81%
    20:00 +7°C° 0.1 mm 4 m/s 743 mmHg 83%
    21:00 +6°C° 0.1 mm 4 m/s 743 mmHg 85%
    22:00 +6°C° 0.1 mm 4 m/s 743 mmHg 88%
    23:00 +7°C° 0.1 mm 3 m/s 743 mmHg 90%

    21 Outubro, Domingo

    Tempo Temperatura Precipitação Vento Pressão Humidade
    00:00 +5°C° 0 mm 3 m/s 743 mmHg 91%
    01:00 +5°C° 0 mm 3 m/s 743 mmHg 93%
    02:00 +4°C° 0 mm 3 m/s 743 mmHg 94%
    03:00 +4°C° 0 mm 3 m/s 743 mmHg 94%
    04:00 +4°C° 0 mm 3 m/s 743 mmHg 94%
    05:00 +3°C° 0 mm 3 m/s 743 mmHg 94%
    06:00 +4°C° 0 mm 3 m/s 743 mmHg 91%
    07:00 +4°C° 0 mm 3 m/s 743 mmHg 88%
    08:00 +4°C° 0 mm 4 m/s 743 mmHg 85%
    09:00 +5°C° 0 mm 4 m/s 744 mmHg 80%
    10:00 +6°C° 0 mm 4 m/s 744 mmHg 74%
    11:00 +8°C° 0 mm 5 m/s 744 mmHg 69%
    12:00 +8°C° 0 mm 4 m/s 744 mmHg 66%
    13:00 +10°C° 0 mm 4 m/s 744 mmHg 64%
    14:00 +10°C° 0 mm 4 m/s 744 mmHg 61%
    15:00 +9°C° 0 mm 3 m/s 744 mmHg 65%
    16:00 +8°C° 0 mm 2 m/s 744 mmHg 69%
    17:00 +9°C° 0 mm 1 m/s 744 mmHg 73%
    18:00 +8°C° 0 mm 1 m/s 744 mmHg 77%
    19:00 +7°C° 0 mm 1 m/s 744 mmHg 81%
    20:00 +5°C° 0 mm 0 m/s 744 mmHg 85%
    21:00 +6°C° 0 mm 1 m/s 744 mmHg 86%
    22:00 +6°C° 0 mm 1 m/s 744 mmHg 86%
    23:00 +4°C° 0 mm 2 m/s 744 mmHg 87%

    22 Outubro, Segunda-feira

    Tempo Temperatura Precipitação Vento Pressão Humidade
    00:00 +4°C° 0 mm 2 m/s 744 mmHg 88%
    01:00 +4°C° 0 mm 2 m/s 744 mmHg 88%
    02:00 +3°C° 0 mm 3 m/s 743 mmHg 89%
    03:00 +3°C° 0 mm 3 m/s 743 mmHg 87%
    04:00 +3°C° 0 mm 4 m/s 743 mmHg 86%
    05:00 +4°C° 0 mm 4 m/s 743 mmHg 84%
    06:00 +4°C° 0 mm 4 m/s 742 mmHg 83%
    07:00 +5°C° 0 mm 5 m/s 742 mmHg 81%
    08:00 +5°C° 0 mm 5 m/s 742 mmHg 80%
    09:00 +6°C° 0.2 mm 5 m/s 741 mmHg 80%
    10:00 +7°C° 0.2 mm 5 m/s 741 mmHg 80%
    11:00 +7°C° 0.2 mm 6 m/s 741 mmHg 81%
    12:00 +7°C° 1 mm 5 m/s 741 mmHg 84%
    13:00 +7°C° 1 mm 5 m/s 741 mmHg 87%
    14:00 +7°C° 1 mm 5 m/s 740 mmHg 90%
    15:00 +7°C° 0.8 mm 4 m/s 740 mmHg 89%
    16:00 +7°C° 0.8 mm 4 m/s 740 mmHg 88%
    17:00 +7°C° 0.8 mm 3 m/s 740 mmHg 87%
    18:00 +7°C° 0.1 mm 3 m/s 740 mmHg 85%
    19:00 +5°C° 0.1 mm 3 m/s 741 mmHg 83%
    20:00 +4°C° 0.1 mm 3 m/s 741 mmHg 80%
    21:00 +5°C° 0 mm 2 m/s 740 mmHg 81%
    22:00 +4°C° 0 mm 2 m/s 740 mmHg 81%
    23:00 +4°C° 0 mm 2 m/s 740 mmHg 81%

    23 Outubro, Terça-feira

    Tempo Temperatura Precipitação Vento Pressão Humidade
    00:00 +4°C° 0 mm 2 m/s 740 mmHg 82%
    01:00 +4°C° 0 mm 2 m/s 739 mmHg 83%
    02:00 +3°C° 0 mm 2 m/s 739 mmHg 84%
    03:00 +3°C° 0 mm 2 m/s 739 mmHg 86%
    04:00 +3°C° 0 mm 2 m/s 738 mmHg 87%
    05:00 +3°C° 0 mm 2 m/s 738 mmHg 88%
    06:00 +3°C° 0 mm 2 m/s 737 mmHg 89%
    07:00 +3°C° 0 mm 2 m/s 737 mmHg 89%
    08:00 +3°C° 0 mm 2 m/s 736 mmHg 90%
    09:00 +4°C° 0 mm 3 m/s 736 mmHg 85%
    10:00 +5°C° 0 mm 3 m/s 736 mmHg 81%
    11:00 +7°C° 0 mm 3 m/s 735 mmHg 76%
    12:00 +7°C° 0.3 mm 3 m/s 735 mmHg 75%
    13:00 +8°C° 0.3 mm 3 m/s 734 mmHg 74%
    14:00 +8°C° 0.3 mm 3 m/s 734 mmHg 73%
    15:00 +7°C° 0.2 mm 2 m/s 733 mmHg 76%
    16:00 +7°C° 0.2 mm 2 m/s 733 mmHg 79%
    17:00 +7°C° 0.2 mm 1 m/s 733 mmHg 82%
    18:00 +7°C° 0.1 mm 1 m/s 732 mmHg 84%
    19:00 +6°C° 0.1 mm 1 m/s 732 mmHg 86%
    20:00 +6°C° 0.1 mm 1 m/s 732 mmHg 88%
    21:00 +5°C° 0 mm 1 m/s 732 mmHg 89%
    22:00 +5°C° 0 mm 1 m/s 732 mmHg 90%
    23:00 +5°C° 0 mm 1 m/s 732 mmHg 91%
    Mostrar mais